Hourly Data Report for September 01, 2017

All times are specified in Local Standard Time (LST). Add 1 hour to adjust for Daylight Saving Time where and when it is observed.

WINNIPEG A CS
MANITOBA

49°55'00.000" N
97°14'58.000" W
238.70 m
502S001
71849
XWG

Download Data

Hourly Data (September 2017)
Hourly Data Report for September 1, 2017
Temp Definition
°C
Dew Point Temp Definition
°C
Rel Hum Definition
%
Wind Dir Definition
10's deg

Wind Spd Definition
km/h
Visibility Definition
km
Stn Press Definition
kPa
Hmdx Definition


Wind Chill Definition


Weather Definition


TIME
00:00 16.9 9.7 63 16 30   98.55     LegendNANA
01:00 16.3 9.9 66 16 29   98.50     LegendNANA
02:00 16.8 10.4 66 17 33   98.44     LegendNANA
03:00 16.6 10.8 69 17 33   98.41     LegendNANA
04:00 15.5 11.7 78 18 33   98.44     LegendNANA
05:00 15.6 12.1 79 17 28   98.37     LegendNANA
06:00 15.7 12.6 82 17 36   98.27     LegendNANA
07:00 16.2 13.0 82 16 34   98.22     LegendNANA
08:00 16.4 14.0 86 17 31   98.25     LegendNANA
09:00 16.1 14.6 91 17 26   98.20     LegendNANA
10:00 16.7 15.1 90 17 31   98.12     LegendNANA
11:00 17.6 15.5 88 18 31   98.13     LegendNANA
12:00 18.7 16.4 86 18 26   98.05     LegendNANA
13:00 19.9 17.4 85 18 30   97.95     LegendNANA
14:00 20.5 17.7 84 18 26   97.91 26   LegendNANA
15:00 21.7 18.0 79 18 28   97.86 28   LegendNANA
16:00 22.7 18.2 76 19 26   97.86 29   LegendNANA
17:00 24.0 18.4 71 19 12   97.84 30   LegendNANA
18:00 23.1 15.4 62 32 19   97.90 27   LegendNANA
19:00 20.8 14.8 69 31 14   97.96 25   LegendNANA
20:00 15.7 12.4 81 32 12   98.00     LegendNANA
21:00 13.9 12.3 90 30 7   98.05     LegendNANA
22:00 15.5 13.8 89 24 12   98.11     LegendNANA
23:00 14.7 13.0 90 27 11   98.13     LegendNANA

Notes on Data Quality.

Legend

  • E = Estimated
  • M = Missing
  • NA = Not Available
  • ‡ = Partner data that is not subject to review by the National Climate Archives
Date modified: